Flight Track Log - Related Links

Times and Time Zones

All times are in EDT time to prevent confusion due to time zone crossing. See the EJA396 flight status page for this flight to view local times or setup timezone preferences in your user account.


Time Position Orientation Groundspeed Altitude Reporting Facility
EDT Latitude Longitude Course Direction KTS MPH feet Rate Location/Type
Sat 04:00:08 PM 33.8500 -116.5167 320° Northwest 163 188 2,000  Level Southern California TRACON
Sat 04:01:02 PM 33.8833 -116.5500 320° Northwest 215 247 5,000 3,379 Climbing Southern California TRACON
Sat 04:01:35 PM 33.9200 -116.5656 341° North 226 260 6,900 2,337 Climbing Los Angeles Center
Sat 04:02:37 PM 33.9333 -116.4894 78° East 255 293 8,700 1,984 Climbing Los Angeles Center
Sat 04:03:39 PM 33.8878 -116.4164 127° Southeast 278 320 11,000 2,419 Climbing Los Angeles Center
Sat 04:04:41 PM 33.8628 -116.3028 105° East 340 391 13,700 2,710 Climbing Los Angeles Center
Sat 04:05:43 PM 33.8442 -116.1786 100° East 369 425 16,600 2,758 Climbing Los Angeles Center
Sat 04:06:45 PM 33.8217 -116.0247 100° East 388 447 19,400 2,208 Climbing Los Angeles Center
Sat 04:07:48 PM 33.8006 -115.8881 100° East 411 473 21,200 1,728 Climbing Los Angeles Center
Sat 04:08:50 PM 33.7803 -115.7464 100° East 430 495 23,000 1,742 Climbing Los Angeles Center
Sat 04:09:52 PM 33.7569 -115.5992 101° East 447 514 24,800 1,790 Climbing Los Angeles Center
Sat 04:10:54 PM 33.7331 -115.4475 101° East 459 528 26,700 1,258 Climbing Los Angeles Center
Sat 04:11:56 PM 33.6958 -115.2978 107° East 469 540 27,400 629 Climbing Los Angeles Center
Sat 04:12:58 PM 33.6303 -115.1586 119° Southeast 476 548 28,000 290 Climbing Los Angeles Center
Sat 04:14:00 PM 33.5517 -114.9903 119° Southeast 481 554 28,000  Level Los Angeles Center
Sat 04:15:02 PM 33.4856 -114.8500 119° Southeast 481 554 28,000 484 Level Los Angeles Center
Sat 04:16:04 PM 33.4356 -114.7014 112° Southeast 490 564 29,000 1,188 Climbing Los Angeles Center
Sat 04:16:38 PM 33.4267 -114.6097 97° East 491 565 29,900 1,375 Climbing Albuquerque Center
Sat 04:17:40 PM 33.4053 -114.4497 99° East 492 566 31,200 1,220 Climbing Albuquerque Center
Sat 04:18:41 PM 33.3822 -114.2889 100° East 492 566 32,400 1,171 Climbing Albuquerque Center
Sat 04:19:43 PM 33.3592 -114.1283 100° East 490 564 33,600 1,161 Climbing Albuquerque Center
Sat 04:20:45 PM 33.3350 -113.9689 100° East 489 563 34,800 1,268 Climbing Albuquerque Center
Sat 04:21:46 PM 33.3069 -113.7767 100° East 489 563 36,200 1,171 Climbing Albuquerque Center
Sat 04:22:48 PM 33.2828 -113.6194 100° East 483 556 37,200 968 Climbing Albuquerque Center
Sat 04:23:50 PM 33.2589 -113.4600 100° East 486 559 38,200 976 Climbing Albuquerque Center
Sat 04:24:51 PM 33.2356 -113.3031 100° East 483 556 39,200 976 Climbing Albuquerque Center
Sat 04:25:53 PM 33.2111 -113.1472 101° East 478 550 40,200 732 Climbing Albuquerque Center
Sat 04:26:54 PM 33.1878 -112.9936 100° East 473 544 40,700 390 Climbing Albuquerque Center
Sat 04:27:56 PM 33.1631 -112.8378 101° East 474 545 41,000 145 Climbing Albuquerque Center
Sat 04:28:58 PM 33.1383 -112.6792 101° East 480 552 41,000  Level Albuquerque Center
Sat 04:29:59 PM 33.1119 -112.5183 101° East 488 562 41,000  Level Albuquerque Center
Sat 04:31:01 PM 33.0806 -112.3208 101° East 500 575 41,000  Level Albuquerque Center
Sat 04:32:02 PM 33.0572 -112.1725 101° East 503 579 41,000  Level Albuquerque Center
Sat 04:33:04 PM 33.0308 -112.0114 101° East 500 575 41,000  Level Albuquerque Center
Sat 04:34:05 PM 33.0050 -111.8514 101° East 496 571 41,000  Level Albuquerque Center
Sat 04:35:07 PM 32.9742 -111.6606 101° East 494 568 41,000  Level Albuquerque Center
Sat 04:36:08 PM 32.9475 -111.5022 101° East 492 566 41,000  Level Albuquerque Center
Sat 04:37:10 PM 32.9211 -111.3428 101° East 493 567 41,000  Level Albuquerque Center
Sat 04:38:11 PM 32.8939 -111.1842 102° East 493 567 41,000  Level Albuquerque Center
Sat 04:39:13 PM 32.8672 -111.0250 101° East 493 567 41,000  Level Albuquerque Center
Sat 04:40:14 PM 32.8397 -110.8658 102° East 493 567 41,000  Level Albuquerque Center
Sat 04:41:16 PM 32.8125 -110.7078 102° East 492 566 41,000  Level Albuquerque Center
Sat 04:42:17 PM 32.7844 -110.5469 102° East 492 566 41,000  Level Albuquerque Center
Sat 04:43:19 PM 32.7506 -110.3589 102° East 490 564 41,000  Level Albuquerque Center
Sat 04:44:20 PM 32.7222 -110.2014 102° East 491 565 41,000  Level Albuquerque Center
Sat 04:45:22 PM 32.6936 -110.0461 102° East 490 564 41,000  Level Albuquerque Center
Sat 04:46:24 PM 32.6658 -109.8908 102° East 488 562 41,000  Level Albuquerque Center
Sat 04:47:25 PM 32.6375 -109.7358 102° East 487 560 41,000  Level Albuquerque Center
Sat 04:48:26 PM 32.6014 -109.5478 103° East 492 566 41,000  Level Albuquerque Center
Sat 04:49:28 PM 32.5733 -109.3939 102° East 488 562 41,000  Level Albuquerque Center
Sat 04:50:30 PM 32.5439 -109.2397 103° East 487 560 41,000  Level Albuquerque Center
Sat 04:51:31 PM 32.5158 -109.0869 102° East 485 558 41,000  Level Albuquerque Center
Sat 04:52:33 PM 32.4869 -108.9339 103° East 485 558 41,000  Level Albuquerque Center
Sat 04:53:34 PM 32.4511 -108.7503 103° East 485 558 41,000  Level Albuquerque Center
Sat 04:54:36 PM 32.4225 -108.5983 103° East 483 556 41,000  Level Albuquerque Center
Sat 04:55:37 PM 32.3928 -108.4433 103° East 483 556 41,000  Level Albuquerque Center
Sat 04:56:39 PM 32.3622 -108.2886 103° East 485 558 41,000  Level Albuquerque Center
Sat 04:57:40 PM 32.3322 -108.1339 103° East 485 558 41,000  Level Albuquerque Center
Sat 04:58:42 PM 32.3019 -107.9800 103° East 484 557 41,000  Level Albuquerque Center
Sat 04:59:45 PM 32.2647 -107.7944 103° East 485 558 41,000  Level Albuquerque Center
Sat 05:00:47 PM 32.2353 -107.6406 103° East 484 557 41,000  Level Albuquerque Center
Sat 05:01:49 PM 32.2050 -107.4950 104° East 484 557 41,000  Level Albuquerque Center
Sat 05:02:50 PM 32.1736 -107.3350 103° East 484 557 41,000  Level Albuquerque Center
Sat 05:03:52 PM 32.1419 -107.1825 104° East 486 559 41,000  Level Albuquerque Center
Sat 05:04:53 PM 32.1050 -106.9986 103° East 487 560 41,000  Level Albuquerque Center
Sat 05:05:55 PM 32.0736 -106.8458 104° East 486 559 41,000  Level Albuquerque Center
Sat 05:06:57 PM 32.0417 -106.6925 104° East 486 559 41,000  Level Albuquerque Center
Sat 05:07:58 PM 32.0083 -106.5392 104° East 486 559 41,000  Level Albuquerque Center
Sat 05:09:00 PM 31.9758 -106.3856 104° East 486 559 41,000  Level Albuquerque Center
Sat 05:10:01 PM 31.9531 -106.2269 100° East 495 570 41,000  Level Albuquerque Center
Sat 05:11:03 PM 31.9486 -106.0667 92° East 493 567 41,000  Level Albuquerque Center
Sat 05:12:05 PM 31.9447 -105.8931 91° East 494 568 41,000  Level Albuquerque Center
Sat 05:13:06 PM 31.9419 -105.7314 91° East 493 567 41,000  Level Albuquerque Center
Sat 05:14:08 PM 31.9383 -105.5694 91° East 494 568 41,000  Level Albuquerque Center
Sat 05:15:09 PM 31.9347 -105.3736 91° East 497 572 41,000  Level Albuquerque Center
Sat 05:16:11 PM 31.9322 -105.2117 91° East 496 571 41,000  Level Albuquerque Center
Sat 05:17:13 PM 31.9286 -105.0486 91° East 495 570 41,000  Level Albuquerque Center
Sat 05:18:14 PM 31.9250 -104.8869 91° East 494 568 41,000  Level Albuquerque Center
Sat 05:19:16 PM 31.9206 -104.7236 92° East 497 572 41,000 -774 Level Albuquerque Center
Sat 05:20:18 PM 31.9158 -104.5581 92° East 502 578 39,400 -2,049 Descending Albuquerque Center
Sat 05:21:19 PM 31.9106 -104.3978 92° East 496 571 36,800 -2,488 Descending Albuquerque Center
Sat 05:22:21 PM 31.9081 -104.2422 91° East 484 557 34,300 -2,439 Descending Albuquerque Center
Sat 05:23:22 PM 31.9025 -104.0922 92° East 467 537 31,800 -2,537 Descending Albuquerque Center
Sat 05:24:24 PM 31.8981 -103.9217 92° East 470 541 29,100 -2,565 Descending Albuquerque Center
Sat 05:25:26 PM 31.8933 -103.7628 92° East 480 552 26,500 -2,488 Descending Albuquerque Center
Sat 05:26:27 PM 31.8894 -103.6086 92° East 479 551 24,000 -2,390 Descending Albuquerque Center
Sat 05:27:29 PM 31.8836 -103.4633 93° East 457 526 21,600 -2,439 Descending Albuquerque Center
Sat 05:28:30 PM 31.8775 -103.3053 93° East 412 474 19,000 -2,195 Descending Albuquerque Center
Sat 05:29:32 PM 31.8844 -103.1728 86° East 408 470 17,100 -1,692 Descending Albuquerque Center
Sat 05:30:27 PM 31.8983 -103.0653 81° East 399 459 15,700 -1,513 Descending Fort Worth Center
Sat 05:31:27 PM 31.9142 -102.9417 81° East 391 450 14,200 -950 Descending Fort Worth Center
Sat 05:32:27 PM 31.9300 -102.8203 81° East 383 441 13,800 -1,000 Descending Fort Worth Center
Sat 05:33:27 PM 31.9475 -102.7011 80° East 378 435 12,200 -1,500 Descending Fort Worth Center
Sat 05:34:27 PM 31.9606 -102.5869 82° East 360 414 10,800 -1,550 Descending Fort Worth Center
Sat 05:35:27 PM 31.9731 -102.4897 81° East 329 379 9,100 -1,850 Descending Fort Worth Center
Sat 05:36:27 PM 31.9844 -102.4072 81° East 288 331 7,100 -2,100 Descending Fort Worth Center
Sat 05:37:27 PM 31.9894 -102.3339 85° East 247 284 4,900 -1,550 Descending Fort Worth Center
Sat 05:38:27 PM 31.9708 -102.2792 112° Southeast 191 220 4,000 -800 Descending Fort Worth Center
Sat 05:39:27 PM 31.9558 -102.2367 113° Southeast 153 176 3,300 -500 Descending Fort Worth Center
Sat 05:40:27 PM 31.9447 -102.1969 108° East 139 160 3,000 -300 Descending Fort Worth Center

Login

Don't have an account? Register now (free) for customized features, flight alerts, and more!